Theta_e
313 313 312 312 311 307 307 319 309 320 321 308 311 305 305 299 304 306 305 306 304 303 303 303 302 301 300 300 301 301 306 306 301 301 300 302 301 302 303 299 299 301 299 294
313 312 312 312 310 308 317 317 313 321 319 303 304 307 302 303 303 303 303 303 304 305 302 301 300 299 298 301 301 303 305 302 298 296 299 300 299 299 300 302 303 299 296 293
312 312 312 311 309 309 317 316 307 312 316 312 308 305 303 301 303 302 303 302 304 302 300 302 301 298 299 302 303 301 304 302 300 296 297 300 296 296 297 300 298 299 298 291
313 312 312 311 308 308 316 313 307 307 306 304 306 306 302 299 299 303 304 302 300 299 298 299 298 299 298 302 302 301 304 298 297 294 294 295 294 294 295 296 297 296 296 294
313 312 312 311 308 308 317 311 311 308 305 304 304 301 300 298 298 299 298 298 299 300 298 298 297 298 299 299 301 300 300 294 296 290 292 292 290 292 293 293 294 294 294 291
312 312 312 311 308 311 314 314 313 313 302 304 303 300 298 298 301 300 300 299 299 298 298 301 302 303 302 302 300 299 299 296 294 289 291 292 288 289 290 290 293 293 291 292
312 313 312 312 309 310 315 312 313 308 300 302 300 300 301 299 299 298 300 302 300 301 304 304 304 303 302 302 301 303 299 298 296 292 292 284 290 294 293 291 291 292 292 292
312 313 313 313 312 310 314 314 313 307 300 303 301 301 301 302 302 299 299 302 304 306 303 299 296 296 297 297 299 300 302 299 293 290 289 290 289 291 292 292 289 292 292 292
312 313 313 313 312 311 315 314 317 311 303 300 302 301 302 299 300 301 300 306 309 306 301 297 290 289 291 291 294 300 300 302 296 292 284 283 292 295 297 296 289 294 294 293
313 313 313 313 313 312 314 314 324 309 301 304 304 300 299 303 301 300 302 303 303 307 298 293 292 290 295 289 289 291 295 295 292 291 291 290 294 296 297 287 289 296 296 295
312 313 314 313 313 312 313 313 320 310 303 305 306 306 302 302 302 298 303 302 303 301 295 294 296 293 294 293 293 292 291 291 293 293 289 282 297 295 290 296 299 297 297 297
311 312 313 314 312 312 313 310 316 315 307 306 311 311 310 308 306 304 307 303 303 303 299 301 300 296 297 293 290 296 291 292 291 289 289 297 299 298 300 301 298 298 298 298
310 312 313 313 312 311 312 314 315 315 309 307 307 306 312 313 310 311 304 306 306 306 307 303 301 292 297 290 289 292 295 296 294 293 294 296 298 299 300 300 299 299 300 299
310 311 313 313 312 310 313 315 317 314 310 302 304 312 309 313 312 310 310 309 310 309 308 303 300 295 299 292 293 291 294 296 292 293 295 296 297 298 299 300 300 300 300 300
310 312 313 312 312 309 315 316 316 316 309 301 303 309 311 311 311 309 310 309 307 306 303 300 296 299 295 294 294 293 298 294 293 293 297 297 297 300 300 300 299 300 300 299
310 311 312 311 309 307 316 309 315 317 315 307 301 308 308 310 309 309 308 307 306 305 302 300 299 299 298 295 291 295 297 299 300 297 300 301 301 302 302 301 302 302 301 302
309 310 310 310 308 315 311 307 311 310 317 307 302 303 308 310 309 308 307 308 305 304 302 299 300 299 300 297 290 296 299 300 301 302 302 299 301 300 303 303 303 303 304 303
309 309 309 309 306 306 312 316 311 311 312 309 300 300 304 309 304 304 308 305 307 303 304 304 300 301 300 290 297 299 300 301 301 302 303 303 304 304 303 304 304 303 302 302
308 308 309 313 314 311 313 311 312 318 311 303 301 296 296 308 307 308 308 307 302 306 301 300 301 298 289 296 298 299 300 300 300 302 303 303 302 302 303 304 304 303 302 302
308 314 310 307 313 309 312 314 311 309 309 307 299 304 298 303 304 305 304 307 302 298 299 305 295 293 299 300 301 303 303 303 303 300 299 301 301 301 303 303 305 304 303 304
317 310 308 316 312 313 310 303 300 301 299 303 302 302 299 308 300 301 305 302 303 295 297 297 297 292 299 302 303 304 305 305 305 306 306 306 306 305 305 304 305 305 304 304
309 310 312 314 309 305 297 297 300 298 295 301 300 301 303 306 308 303 305 298 301 290 301 295 290 298 301 303 303 304 305 306 305 306 305 305 305 306 305 306 305 305 304 305
317 312 306 304 303 293 292 290 295 296 300 302 302 300 304 306 307 303 301 293 294 302 294 290 294 299 301 303 304 303 304 304 305 304 305 306 305 305 305 304 305 304 305 306
309 301 292 297 294 298 299 298 299 302 302 302 303 302 302 305 301 302 293 298 299 290 287 289 297 299 301 303 305 305 303 303 302 303 302 302 302 304 304 304 306 306 305 307
304 303 293 298 302 304 304 305 303 306 305 304 302 303 302 302 298 301 297 292 289 292 292 298 299 302 303 303 303 303 303 303 304 305 303 303 303 304 304 305 307 307 306 307
306 303 299 304 301 302 304 303 302 307 305 306 304 299 296 296 298 293 291 289 287 295 301 303 304 303 304 304 304 304 304 304 305 306 305 304 303 304 305 306 306 306 306 306
302 302 306 304 303 302 303 305 305 308 304 298 299 293 292 300 294 292 299 295 298 304 306 307 307 304 304 304 304 303 304 304 305 305 306 306 308 307 305 303 305 305 307 308
Wind_Speed
22 22 21 19 13 6 4 3 3 3 4 6 2 5 1 1 1 2 2 4 4 3 4 4 3 3 5 2 3 4 3 5 10 2 4 3 3 5 7 9 13 8 9 7
22 22 22 19 13 4 4 0 4 3 4 4 5 3 3 4 3 4 4 2 4 4 3 5 3 0 3 2 3 2 3 5 9 7 7 7 7 1 4 6 6 16 10 7
24 24 23 21 14 3 5 3 4 4 1 3 6 1 1 3 7 4 3 4 2 3 4 2 3 2 1 1 3 4 4 3 7 11 8 5 5 6 3 6 8 10 3 15
27 27 24 21 14 2 4 4 5 5 2 6 5 1 4 3 4 6 9 3 8 6 5 5 5 3 3 2 5 2 4 6 2 4 3 2 3 1 5 8 5 7 10 11
27 27 28 23 18 6 3 3 1 4 6 3 6 5 8 8 5 8 5 6 8 6 5 7 8 7 4 3 4 3 2 3 9 5 5 7 10 8 8 8 9 9 13 14
26 27 27 27 26 10 4 2 2 1 5 6 2 8 7 9 3 4 5 7 7 5 7 6 4 2 2 2 3 5 5 8 7 6 9 10 7 5 4 5 4 9 5 11
25 25 26 25 21 16 5 4 4 3 8 8 9 6 7 9 9 6 6 8 6 5 2 5 5 5 6 5 4 1 6 10 5 6 9 9 7 3 2 10 7 8 11 10
25 25 24 24 20 15 10 5 4 4 7 6 11 10 9 4 2 6 6 8 5 4 7 6 5 8 7 7 7 3 5 7 3 5 12 7 7 6 8 2 7 5 9 9
22 23 23 22 22 20 9 10 5 4 4 10 6 6 9 7 8 1 5 3 3 5 5 4 7 6 5 1 5 3 6 2 6 4 3 7 9 9 3 3 7 7 7 7
20 21 21 21 20 19 11 8 7 6 10 10 12 8 9 9 8 5 1 8 4 3 8 4 6 4 10 2 6 3 2 5 7 4 2 7 5 7 3 6 7 10 8 7
19 20 19 19 18 17 10 7 11 9 11 11 13 11 11 9 9 7 10 7 3 5 6 4 1 2 2 3 5 6 5 5 2 2 1 5 5 5 2 6 12 10 8 6
18 18 18 16 16 16 11 8 7 8 10 8 6 8 8 8 9 7 3 6 5 5 4 2 1 2 1 4 2 4 1 7 3 5 3 6 6 6 9 7 9 8 7 6
17 16 15 15 13 13 10 6 5 2 2 7 9 10 9 11 8 5 7 5 4 4 4 4 2 5 3 5 5 2 5 3 5 2 7 9 9 9 7 8 8 7 5 5
16 15 13 11 11 11 8 6 5 3 1 3 8 5 9 7 8 4 2 3 3 2 2 2 3 3 5 4 6 6 5 3 5 11 9 9 7 8 8 8 7 6 4 3
17 16 12 9 7 7 3 4 5 5 6 4 5 5 8 7 8 9 6 3 4 2 1 4 5 4 5 1 3 5 3 2 2 4 9 4 9 8 8 8 7 5 4 4
16 15 12 9 6 4 4 5 3 7 4 3 0 4 9 8 5 7 9 6 4 3 4 4 4 3 5 1 5 4 5 4 1 8 8 9 8 7 7 5 5 5 4 3
17 14 11 9 2 3 5 5 6 7 4 3 1 1 5 11 3 3 4 5 4 4 3 4 3 3 3 3 2 6 7 8 11 10 10 9 8 8 7 5 4 5 5 5
16 12 8 1 9 9 3 4 3 5 2 2 3 3 1 7 4 2 4 3 2 4 2 2 3 3 4 2 8 7 7 8 8 6 2 5 4 5 5 5 5 5 6 6
15 10 2 4 3 3 4 9 6 3 5 2 3 6 4 5 3 3 2 2 2 2 3 4 2 3 3 7 8 7 7 6 7 5 5 4 5 6 5 3 7 8 6 3
11 4 3 1 4 6 6 5 2 3 2 3 5 3 5 5 5 3 3 1 1 1 4 0 3 1 3 5 4 5 5 4 3 5 5 5 5 3 4 5 5 5 5 6
3 3 4 4 2 4 1 2 3 3 1 3 4 5 7 2 6 4 3 2 2 0 3 2 1 2 3 5 7 7 7 6 6 6 7 7 8 9 6 2 1 1 3 4
4 4 3 3 2 2 2 3 1 2 4 5 7 7 6 2 3 3 1 3 2 3 1 1 2 2 4 3 3 3 4 4 5 5 5 3 3 1 0 0 3 4 2 1
3 4 1 3 1 5 3 4 2 4 5 4 6 8 4 3 4 3 3 3 3 1 1 2 3 5 1 1 1 4 3 1 1 1 2 3 2 1 0 2 2 3 5 5
3 3 4 3 1 2 2 4 4 4 4 7 7 5 3 2 3 2 4 2 3 2 2 1 3 5 4 3 2 6 3 1 3 2 2 2 4 2 1 5 5 7 8 9
2 1 1 3 3 1 2 3 3 1 4 5 6 4 3 2 4 1 3 3 2 1 2 2 5 5 4 3 3 2 1 2 2 3 5 5 4 4 6 5 6 7 6 8
2 1 2 1 4 1 2 3 4 2 4 4 3 3 4 2 3 3 1 4 1 2 1 3 5 5 4 3 3 3 2 4 3 2 3 4 5 6 6 6 4 5 6 7
3 2 1 3 3 4 4 3 3 2 5 4 3 4 2 2 4 2 1 2 3 2 1 2 2 4 4 3 3 4 3 3 3 5 6 7 7 7 7 4 6 5 4 4
Wind_Direction
340 341 339 339 342 1 211 281 178 80 281 211 265 252 25 344 331 345 290 285 311 320 335 304 274 290 24 14 299 227 112 280 252 9 82 4 299 302 289 266 229 240 293 86
343 345 341 340 341 316 302 48 95 109 276 235 198 129 124 39 342 30 348 318 353 347 328 282 292 64 60 9 250 302 160 205 215 194 207 203 243 176 282 267 271 273 286 103
349 350 347 346 351 325 271 250 153 124 103 27 325 253 50 149 38 69 348 343 273 279 260 262 296 215 86 51 80 38 273 215 280 289 9 348 178 194 238 267 269 265 237 127
354 354 353 353 357 295 276 343 63 356 88 61 45 32 0 2 15 4 17 162 20 332 284 268 259 273 169 146 139 76 277 224 173 50 58 95 109 199 210 229 338 281 97 139
356 357 358 3 1 318 59 354 350 81 71 23 76 39 40 24 36 1 31 11 357 353 322 338 311 326 249 264 170 182 198 161 146 92 109 118 100 77 82 90 85 91 109 111
356 360 4 2 3 332 59 66 107 329 13 55 73 41 35 35 340 87 30 337 309 1 29 17 359 336 353 350 255 181 186 162 202 150 153 147 136 62 87 102 121 132 153 105
0 1 4 7 9 5 47 30 308 61 70 64 60 50 31 25 15 358 13 349 314 106 294 268 282 106 95 93 88 290 193 193 214 136 176 223 78 105 83 97 83 83 102 121
3 3 4 5 11 358 52 31 2 69 83 79 51 36 6 17 36 21 355 20 4 272 283 253 229 204 222 105 47 69 264 223 160 194 209 101 147 168 158 226 124 110 122 128
2 2 3 6 6 4 47 42 347 32 69 38 355 349 27 353 354 51 35 64 348 273 280 252 269 281 357 320 151 87 143 245 243 195 190 206 91 132 131 213 163 156 150 145
359 2 4 7 6 2 43 47 357 84 89 48 28 32 1 359 343 290 40 356 277 257 264 297 327 336 332 296 316 343 209 242 259 178 187 100 106 128 172 224 87 143 144 149
358 360 4 7 6 0 38 48 10 65 86 69 51 43 24 358 360 331 9 264 162 283 311 342 282 305 256 270 39 343 346 315 45 291 226 124 132 146 320 81 121 140 146 143
357 357 356 4 6 5 350 69 50 40 58 78 56 59 35 360 325 309 307 356 0 10 306 346 10 210 270 333 115 59 159 24 37 30 63 99 87 100 113 128 135 143 143 148
352 351 351 354 360 7 353 45 5 257 106 98 43 19 13 19 14 343 300 92 351 78 333 14 8 68 338 6 50 360 94 343 105 188 92 100 103 112 121 128 130 149 144 168
347 345 344 350 356 358 347 42 4 322 349 1 76 26 38 1 34 41 334 28 90 85 329 30 42 61 9 54 66 47 23 269 83 97 116 120 117 117 129 121 133 150 153 165
342 339 340 346 330 299 1 57 37 17 321 13 62 89 24 33 39 51 54 30 299 307 65 55 67 84 89 79 215 69 341 50 342 82 139 70 128 135 145 152 158 168 171 159
337 334 338 344 332 229 244 196 102 10 338 289 59 115 24 22 23 40 49 38 31 50 33 76 94 73 272 315 82 53 69 124 56 113 127 125 128 139 157 167 165 176 204 208
330 328 331 335 283 308 15 26 348 337 290 284 333 56 51 359 307 69 42 58 47 11 75 56 56 82 300 41 78 102 100 116 111 119 135 135 173 153 178 189 188 188 242 236
322 318 320 286 85 111 167 67 356 307 286 339 14 343 327 7 6 7 5 2 91 39 76 147 13 106 48 84 136 122 120 126 137 143 51 92 140 166 199 199 214 227 223 206
315 309 257 203 233 327 35 346 278 311 338 46 28 354 347 350 3 301 209 287 74 41 34 55 334 18 33 121 146 149 155 166 163 182 202 203 220 238 246 250 256 252 253 199
305 267 250 122 37 328 250 187 202 40 55 358 20 353 331 326 340 326 336 356 51 74 55 179 67 78 112 153 159 149 168 179 216 237 250 249 261 297 280 284 292 270 278 266
351 350 20 360 337 241 341 64 16 348 49 11 4 22 329 78 325 324 357 334 328 290 89 300 84 77 109 170 213 215 221 241 264 276 286 291 289 290 293 308 314 208 285 311
352 312 259 258 317 21 359 38 115 24 18 354 343 343 330 327 302 276 291 307 273 51 10 64 56 99 79 95 140 184 214 247 278 293 305 340 348 346 326 202 312 311 15 262
220 240 314 15 43 30 21 4 30 347 352 351 327 327 341 204 244 274 280 291 41 218 43 79 224 119 159 1 147 107 108 128 297 48 40 46 50 184 78 337 316 274 283 303
315 347 4 357 14 39 2 344 337 345 309 327 327 299 305 343 265 302 286 46 255 357 60 248 157 157 150 162 168 178 157 40 324 356 27 353 348 350 343 320 303 283 288 291
336 303 13 23 11 250 332 322 294 272 305 309 310 256 261 278 278 286 298 244 34 115 220 116 111 163 182 169 159 163 222 323 257 261 307 307 327 309 307 329 318 310 309 314
246 204 257 136 257 219 217 268 295 14 311 286 246 276 262 240 299 257 317 339 250 271 13 72 137 167 179 212 211 228 271 290 293 293 304 290 281 296 322 316 7 2 353 348
227 195 237 305 300 324 336 318 325 330 286 305 309 268 339 299 239 231 85 261 342 58 50 105 135 179 194 206 216 228 241 249 268 279 273 277 282 279 284 327 17 350 21 9